OBJECT J, 49403

Orbit data source: Space-Track

You're viewing an Uncataloged Satellite

Recently launched and/or uncataloged satellites may have evolving metadata. Metadata may include but not limited to: Owner, Maufacturer, Bus, Motor, and Mission.

OBJECT J, 49403 is a satellite owned by Aoyama Gakuin (JP) in SSO that was launched on Tue, 09 Nov 2021 UTC via an EPSILON launch vehicle from the Kagoshima Space Center University Of Tokyo (KSCUT). Unknown objects in Earth's orbit typically refer to objects detected orbiting the Earth but have not yet been identified or cataloged. These objects could be anything from previously untracked satellites, spent rocket stages, debris from satellite collisions, or even natural meteoroids temporarily captured by Earth's gravity.

Loading next visibility...
Identifier
49403, 2021-102J
Orbit
SSO
Country
Flag of JPJP / JPN
Related business
Flag of JPAoyama Gakuin University (JP)
Manufacturer
Aoyama Gakuin
Mission
Non-operational Amateur Astronomy
Bus & Motor
CUBESAT 1U, Unknown motor
Mass
1 kg wet, 1 kg dry
Launch date (UTC)
2021-11-09 (4 years ago)
Launch vehicle
EPSILON
Launch site
Kagoshima Space Center University Of Tokyo (KSCUT)
Object type
Unknown
Shape & HBR
Box, 0.1 m
Radar Cross Section
0.015 m², Small (<0.1 m²)

Expand to show TLE details & history
Last TLE update: 10 hours ago

TLE from 10 hours ago
0 OBJECT J
1 49403U 21102J   26095.14659355  .00117043  00000-0  10922-2 0  9998
2 49403  97.3097 157.6666 0004725  49.8121 310.3553 15.66936254244161
Epoch: 2026-04-05T03:31Z
TLE epoch observation values (Epoch: 2026-04-05T03:31:05.682Z)
Latitude
-0.00001°
Longitude
-88.56327°
Altitude
368.769 km
Speed
7.689 km/s
True Right ascension
10h 30m 39s
True Declination
0° 00' 00"
Sunlit
Object was in full shadow at epoch
Visualization orbit readout
Latitude
Unknown
Longitude
Unknown
Altitude
Unknown
Speed
Unknown
Apparent Right ascension
Unknown
Apparent Declination
Unknown
Sunlit
N/A
Visualization observer readout
Local Sidereal Time
19:26:40
Azimuth
Unknown
Elevation
Unknown
Doppler factor
Unknown
Orbital elements
Apogee altitude
367.761 km
Perigee altitude
361.389 km
Semi-major axis
6,742.712 km
Eccentricity
0.00047
Inclination
97.3097°
RAAN
157.6666°
Arg. of periapsis
49.8121°
True anomaly
310.31402°
Mean anomaly
310.3553°
Eccentric anomaly
310.33466°
Mean motion
3.92005 °/min
Orbital period
91.84 mins
BSTAR
0.0010922
Loading maneuver chart data...
Computing Atmospheric mass density...
Loading historical data...
Loading historical data...
Loading historical data...
Loading historical data...
Loading historical data...
Loading historical data...
Loading historical data...

Documentation

Showing up to 5 results
|